Location: New Frontier Mobile Home Park
(32.8448°N, 116.9675°W)
Time: 22:04:10
(UTC+00:00)

Lacrosse 5 - Pass Details

Date: 14 July 2020
Orbit: 717 x 720 km, 57.0° (Epoch: 02 August)

Event Time Altitude Azimuth Distance (km) Brightness Sun altitude
Exits shadow 08:26:23 19° 323° (NW) 1,654 4.1 -35.0°
Drops below altitude 10° 08:29:55 10° 8° (N) 2,202 5.2 -34.9°
Sets 08:32:57 0° 26° (NNE) 3,125 6.1 -34.8°
